Location: Zagreb
(45.8000°N, 16.0000°E)
Time: 17:21:20
(UTC+01:00)

Tiros 1 despin weight - Pass Details

Date: 29 January 2020
Orbit: 594 x 642 km, 48.2° (Epoch: 25 February)

Event Time Altitude Azimuth Distance (km) Brightness Sun altitude
Rises 15:08:26 0° 289° (WNW) 2,898 ? 14.4°
Reaches altitude 10° 15:10:48 10° 283° (WNW) 1,998 ? 14.1°
Maximum altitude 15:15:12 45° 211° (SSW) 855 ? 13.6°
Drops below altitude 10° 15:19:37 10° 139° (SE) 2,014 ? 13.0°
Sets 15:22:01 0° 133° (SE) 2,925 ? 12.7°
